When you browse on this site, cookies collect data to enhance your experience and personalize the content and advertising you see.
Visit our Privacy Policy to learn more. By continuing to use the site, you agree to this use of cookies and data.
  • en Belgique
  • Liste des pays
  • À 7 jours
  • Température de l'eau
  • Carte météo
  • Widgets météo
  • user-avatar
    Se connecter

    Météo par heure à Biskra

    Ce jour, 14 Octobre, Lundi

    Heure Température Précipitation Vent Pression Humidité
    00:00 +25°C° 0 mm 2 m/s 755 mmHg 49%
    01:00 +25°C° 0 mm 2 m/s 755 mmHg 50%
    02:00 +25°C° 0 mm 1 m/s 755 mmHg 52%
    03:00 +24°C° 0 mm 1 m/s 755 mmHg 53%
    04:00 +24°C° 0 mm 1 m/s 755 mmHg 54%
    05:00 +24°C° 0 mm 1 m/s 755 mmHg 55%
    06:00 +23°C° 0 mm 1 m/s 755 mmHg 56%
    07:00 +25°C° 0 mm 2 m/s 755 mmHg 52%
    08:00 +26°C° 0 mm 2 m/s 755 mmHg 48%
    09:00 +28°C° 0 mm 3 m/s 755 mmHg 43%
    10:00 +29°C° 0 mm 3 m/s 755 mmHg 41%
    11:00 +29°C° 0 mm 3 m/s 754 mmHg 38%
    12:00 +30°C° 0 mm 2 m/s 753 mmHg 36%
    13:00 +31°C° 0 mm 2 m/s 753 mmHg 34%
    14:00 +31°C° 0 mm 2 m/s 752 mmHg 33%
    15:00 +32°C° 0 mm 2 m/s 752 mmHg 32%
    16:00 +31°C° 0 mm 2 m/s 752 mmHg 33%
    17:00 +30°C° 0 mm 3 m/s 752 mmHg 35%
    18:00 +29°C° 0 mm 3 m/s 752 mmHg 36%
    19:00 +29°C° 0 mm 3 m/s 753 mmHg 38%
    20:00 +28°C° 0 mm 3 m/s 753 mmHg 39%
    21:00 +28°C° 0 mm 2 m/s 753 mmHg 41%
    22:00 +28°C° 0 mm 2 m/s 753 mmHg 41%
    23:00 +28°C° 0 mm 2 m/s 753 mmHg 41%

    Demain, 15 Octobre, Mardi

    Heure Température Précipitation Vent Pression Humidité
    00:00 +28°C° 0 mm 3 m/s 753 mmHg 41%
    01:00 +27°C° 0.3 mm 2 m/s 753 mmHg 43%
    02:00 +27°C° 0.3 mm 2 m/s 753 mmHg 45%
    03:00 +26°C° 0.3 mm 2 m/s 753 mmHg 47%
    04:00 +26°C° 0.1 mm 2 m/s 753 mmHg 48%
    05:00 +26°C° 0.1 mm 2 m/s 753 mmHg 49%
    06:00 +25°C° 0.1 mm 2 m/s 753 mmHg 51%
    07:00 +26°C° 0.1 mm 2 m/s 753 mmHg 48%
    08:00 +27°C° 0.1 mm 2 m/s 753 mmHg 45%
    09:00 +28°C° 0.1 mm 2 m/s 754 mmHg 42%
    10:00 +29°C° 0 mm 2 m/s 753 mmHg 39%
    11:00 +30°C° 0 mm 2 m/s 753 mmHg 37%
    12:00 +31°C° 0 mm 2 m/s 753 mmHg 35%
    13:00 +31°C° 0 mm 2 m/s 752 mmHg 34%
    14:00 +31°C° 0 mm 1 m/s 752 mmHg 32%
    15:00 +32°C° 0 mm 1 m/s 752 mmHg 31%
    16:00 +31°C° 0.2 mm 2 m/s 752 mmHg 33%
    17:00 +30°C° 0.2 mm 2 m/s 752 mmHg 36%
    18:00 +30°C° 0.2 mm 3 m/s 752 mmHg 38%
    19:00 +29°C° 0.2 mm 2 m/s 753 mmHg 40%
    20:00 +28°C° 0.2 mm 2 m/s 753 mmHg 43%
    21:00 +27°C° 0.2 mm 2 m/s 754 mmHg 45%
    22:00 +27°C° 0.3 mm 2 m/s 754 mmHg 47%
    23:00 +26°C° 0.3 mm 1 m/s 754 mmHg 48%

    Après-demain, 16 Octobre, Mercredi

    Heure Température Précipitation Vent Pression Humidité
    00:00 +26°C° 0.3 mm 1 m/s 754 mmHg 50%
    01:00 +26°C° 0.2 mm 1 m/s 754 mmHg 51%
    02:00 +26°C° 0.2 mm 1 m/s 754 mmHg 53%
    03:00 +25°C° 0.2 mm 1 m/s 754 mmHg 54%
    04:00 +25°C° 0.1 mm 1 m/s 754 mmHg 55%
    05:00 +25°C° 0.1 mm 1 m/s 754 mmHg 56%
    06:00 +24°C° 0.1 mm 1 m/s 754 mmHg 57%
    07:00 +25°C° 0 mm 1 m/s 754 mmHg 54%
    08:00 +26°C° 0 mm 2 m/s 754 mmHg 52%
    09:00 +27°C° 0 mm 3 m/s 755 mmHg 49%
    10:00 +28°C° 0 mm 3 m/s 755 mmHg 47%
    11:00 +29°C° 0 mm 3 m/s 754 mmHg 45%
    12:00 +29°C° 0 mm 3 m/s 754 mmHg 43%
    13:00 +30°C° 0 mm 2 m/s 754 mmHg 41%
    14:00 +30°C° 0 mm 2 m/s 753 mmHg 40%
    15:00 +30°C° 0 mm 2 m/s 753 mmHg 39%
    16:00 +30°C° 0 mm 1 m/s 753 mmHg 40%
    17:00 +29°C° 0 mm 1 m/s 753 mmHg 42%
    18:00 +28°C° 0 mm 1 m/s 753 mmHg 44%
    19:00 +28°C° 0 mm 1 m/s 753 mmHg 45%
    20:00 +28°C° 0 mm 2 m/s 754 mmHg 45%
    21:00 +27°C° 0 mm 2 m/s 754 mmHg 45%
    22:00 +27°C° 0 mm 2 m/s 754 mmHg 46%
    23:00 +27°C° 0 mm 2 m/s 754 mmHg 47%

    17 Octobre, Jeudi

    Heure Température Précipitation Vent Pression Humidité
    00:00 +27°C° 0 mm 2 m/s 754 mmHg 47%
    01:00 +27°C° 0 mm 3 m/s 754 mmHg 51%
    02:00 +26°C° 0 mm 4 m/s 754 mmHg 55%
    03:00 +26°C° 0 mm 5 m/s 753 mmHg 58%
    04:00 +25°C° 0 mm 5 m/s 754 mmHg 62%
    05:00 +25°C° 0 mm 5 m/s 754 mmHg 66%
    06:00 +25°C° 0 mm 5 m/s 754 mmHg 69%
    07:00 +25°C° 0 mm 5 m/s 754 mmHg 68%
    08:00 +26°C° 0 mm 5 m/s 754 mmHg 66%
    09:00 +26°C° 0 mm 5 m/s 755 mmHg 65%
    10:00 +27°C° 0 mm 5 m/s 754 mmHg 60%
    11:00 +28°C° 0 mm 4 m/s 754 mmHg 55%
    12:00 +29°C° 0 mm 4 m/s 754 mmHg 50%
    13:00 +29°C° 0 mm 3 m/s 753 mmHg 49%
    14:00 +29°C° 0 mm 2 m/s 753 mmHg 48%
    15:00 +29°C° 0 mm 2 m/s 753 mmHg 47%
    16:00 +29°C° 0 mm 2 m/s 753 mmHg 48%
    17:00 +28°C° 0 mm 2 m/s 753 mmHg 50%
    18:00 +28°C° 0 mm 2 m/s 753 mmHg 51%
    19:00 +27°C° 0 mm 2 m/s 753 mmHg 50%
    20:00 +27°C° 0 mm 2 m/s 753 mmHg 49%
    21:00 +27°C° 0 mm 2 m/s 754 mmHg 49%
    22:00 +27°C° 0 mm 2 m/s 754 mmHg 49%
    23:00 +27°C° 0 mm 1 m/s 754 mmHg 50%

    18 Octobre, Vendredi

    Heure Température Précipitation Vent Pression Humidité
    00:00 +26°C° 0 mm 1 m/s 754 mmHg 50%
    01:00 +26°C° 0 mm 1 m/s 754 mmHg 50%
    02:00 +26°C° 0 mm 1 m/s 753 mmHg 51%
    03:00 +26°C° 0 mm 1 m/s 753 mmHg 51%
    04:00 +26°C° 0 mm 1 m/s 753 mmHg 52%
    05:00 +26°C° 0 mm 1 m/s 753 mmHg 52%
    06:00 +25°C° 0 mm 1 m/s 753 mmHg 53%
    07:00 +26°C° 0 mm 1 m/s 754 mmHg 50%
    08:00 +27°C° 0 mm 2 m/s 754 mmHg 47%
    09:00 +28°C° 0 mm 3 m/s 754 mmHg 43%
    10:00 +29°C° 0 mm 2 m/s 754 mmHg 41%
    11:00 +30°C° 0 mm 2 m/s 754 mmHg 39%
    12:00 +30°C° 0 mm 2 m/s 753 mmHg 37%
    13:00 +30°C° 0 mm 1 m/s 753 mmHg 36%
    14:00 +31°C° 0 mm 1 m/s 753 mmHg 35%
    15:00 +31°C° 0 mm 1 m/s 752 mmHg 34%
    16:00 +30°C° 0.1 mm 1 m/s 752 mmHg 37%
    17:00 +29°C° 0.1 mm 2 m/s 753 mmHg 39%
    18:00 +28°C° 0.1 mm 2 m/s 753 mmHg 42%
    19:00 +28°C° 0 mm 2 m/s 753 mmHg 42%
    20:00 +28°C° 0 mm 2 m/s 753 mmHg 43%
    21:00 +28°C° 0 mm 1 m/s 753 mmHg 44%
    22:00 +27°C° 0 mm 1 m/s 753 mmHg 45%
    23:00 +27°C° 0 mm 1 m/s 753 mmHg 46%

    19 Octobre, Samedi

    Heure Température Précipitation Vent Pression Humidité
    00:00 +27°C° 0 mm 1 m/s 753 mmHg 47%
    01:00 +26°C° 0 mm 1 m/s 753 mmHg 49%
    02:00 +25°C° 0 mm 1 m/s 752 mmHg 51%
    03:00 +23°C° 0 mm 0 m/s 752 mmHg 54%
    04:00 +22°C° 0 mm 0 m/s 752 mmHg 54%
    05:00 +22°C° 0 mm 0 m/s 752 mmHg 55%
    06:00 +22°C° 0 mm 0 m/s 752 mmHg 55%
    07:00 +23°C° 0 mm 0 m/s 752 mmHg 50%
    08:00 +27°C° 0 mm 1 m/s 753 mmHg 44%
    09:00 +29°C° 0 mm 1 m/s 753 mmHg 39%
    10:00 +30°C° 0 mm 1 m/s 753 mmHg 36%
    11:00 +31°C° 0 mm 2 m/s 752 mmHg 33%
    12:00 +31°C° 0 mm 2 m/s 752 mmHg 31%
    13:00 +32°C° 0 mm 2 m/s 752 mmHg 30%
    14:00 +32°C° 0 mm 2 m/s 751 mmHg 29%
    15:00 +32°C° 0 mm 2 m/s 751 mmHg 28%
    16:00 +32°C° 0 mm 2 m/s 751 mmHg 30%
    17:00 +31°C° 0 mm 2 m/s 751 mmHg 32%
    18:00 +30°C° 0 mm 3 m/s 751 mmHg 34%
    19:00 +30°C° 0 mm 3 m/s 752 mmHg 35%
    20:00 +29°C° 0 mm 3 m/s 752 mmHg 36%
    21:00 +29°C° 0 mm 3 m/s 752 mmHg 37%
    22:00 +28°C° 0 mm 2 m/s 752 mmHg 39%
    23:00 +28°C° 0 mm 2 m/s 752 mmHg 41%
    Voir plus